Wind_Speed
15 15 14 14 14 13 13 14 14 13 14 14 14 14 13 12 12 11 11 10 9 10 10 10 10 10 10 9 10 11 11 11 10 10 10 10 9 9 9 9 8 8 8 7 7 7 7 7 7
15 15 14 14 14 12 13 13 13 14 13 13 13 13 13 12 12 11 11 10 9 9 9 9 9 9 9 9 10 10 10 10 10 9 9 9 9 8 9 8 8 8 7 7 6 6 6 6 6
14 14 13 13 13 12 13 13 13 13 13 13 12 13 12 12 12 11 11 10 10 9 9 9 8 8 8 9 9 9 9 9 9 9 8 8 8 8 8 7 7 7 7 6 6 6 6 6 5
13 13 13 13 12 12 13 13 12 13 12 12 12 12 12 11 10 10 10 10 10 9 8 8 8 8 8 8 9 9 8 8 8 8 8 7 7 7 7 7 7 7 6 5 6 6 5 5 5
12 13 13 12 11 12 12 12 12 12 11 11 12 12 11 11 10 10 10 10 9 9 8 8 7 8 8 7 8 8 7 7 7 7 7 7 7 7 6 6 6 6 5 5 5 5 6 6 5
12 12 11 10 10 11 12 12 11 12 11 11 11 11 10 10 10 10 10 9 9 8 8 7 7 7 7 8 7 7 7 6 7 7 7 6 6 6 6 5 5 5 5 5 5 5 5 5 5
11 11 10 10 10 11 11 11 11 12 11 11 11 10 10 10 9 9 9 9 8 8 8 7 7 7 7 7 7 7 6 6 6 6 6 5 6 5 5 5 5 5 4 4 4 5 5 5 5
9 10 9 9 9 10 11 11 11 11 11 11 11 10 9 10 9 9 9 9 9 8 7 7 7 7 7 7 7 7 6 6 5 5 5 5 4 4 4 4 4 5 4 4 4 4 4 5 5
9 9 7 8 9 9 10 10 11 11 11 11 11 10 10 9 9 9 9 9 9 8 8 7 7 8 7 7 7 6 6 5 4 4 4 4 4 4 4 3 4 4 3 4 4 4 4 4 4
8 7 6 7 8 9 9 10 10 10 11 11 10 10 10 10 10 9 9 9 8 8 8 7 7 8 8 7 7 6 5 5 4 4 3 3 3 3 3 3 3 3 3 4 4 4 4 4 3
6 6 6 7 7 8 9 9 10 10 10 10 10 10 10 10 9 9 8 8 7 7 8 7 7 8 8 8 7 6 5 4 4 3 3 3 3 2 2 2 2 3 3 3 3 3 4 3 3
5 6 6 7 7 8 8 9 9 9 9 10 10 10 9 9 9 9 8 8 7 7 8 8 8 8 8 8 7 6 5 4 3 3 2 3 3 3 2 2 2 2 2 2 2 2 3 2 2
4 5 6 7 7 8 8 9 9 9 9 10 10 9 9 9 9 8 8 8 8 8 8 8 8 8 8 8 8 8 6 4 3 2 2 2 2 2 2 2 1 1 1 1 2 2 2 2 2
4 4 5 6 6 6 7 8 9 9 9 10 10 9 8 8 8 8 8 8 7 8 8 8 8 9 9 9 9 9 8 5 5 4 4 3 2 1 1 1 1 1 1 1 1 1 2 2 2
3 3 3 4 4 5 6 7 7 7 8 8 9 8 8 7 7 7 7 7 7 7 8 8 8 9 10 10 11 10 9 7 7 6 6 5 4 3 2 2 1 1 0 1 0 1 2 2 2
2 2 2 2 3 4 5 6 6 6 7 8 8 7 7 6 6 7 7 7 7 7 8 8 9 9 10 10 10 10 9 9 9 8 7 6 5 5 4 3 2 1 1 1 2 1 2 3 3
3 3 2 2 2 2 4 4 5 5 6 7 7 7 7 6 6 6 7 7 7 6 7 7 8 9 9 10 10 10 10 10 10 9 8 8 7 6 5 4 3 2 2 2 3 2 2 2 3
5 5 4 2 2 2 3 3 3 4 5 6 6 6 6 6 6 6 6 6 6 6 6 7 8 8 9 9 9 10 10 11 11 10 9 9 8 7 6 5 4 4 3 3 3 3 3 3 4
8 7 5 4 3 1 1 1 2 2 4 5 4 5 5 5 6 6 6 6 6 6 6 7 7 8 8 9 9 9 10 10 10 10 10 10 9 8 6 6 6 5 4 4 4 4 3 3 4
9 8 7 6 5 3 2 1 1 2 2 3 4 4 5 5 5 5 6 6 6 5 6 6 7 8 8 8 8 8 9 10 10 10 10 9 9 8 7 6 6 6 6 5 4 4 3 4 4
11 10 9 8 7 5 3 3 3 2 2 2 3 3 4 6 6 6 6 6 6 6 6 6 6 7 8 8 8 8 9 9 10 10 10 9 9 9 8 7 7 7 6 6 5 4 4 5 5
13 12 11 10 8 7 6 5 5 4 3 2 2 3 4 5 5 5 6 6 6 6 6 6 6 7 7 8 8 9 10 10 11 10 10 10 10 10 9 8 8 7 7 7 6 5 5 6 6
16 14 12 11 10 10 8 6 7 6 4 3 3 3 3 4 5 5 6 6 5 6 6 5 6 6 7 7 8 9 9 10 10 10 10 11 11 12 11 10 9 8 7 7 7 6 6 7 7
18 16 14 13 12 12 11 9 8 7 5 4 4 3 3 4 4 5 5 6 6 6 6 5 5 6 7 7 8 9 9 10 10 10 11 12 12 12 12 11 10 9 8 8 8 8 8 8 8
20 17 15 14 15 14 13 12 10 9 7 6 6 5 5 5 4 4 4 5 5 5 5 5 5 6 6 7 8 9 9 10 11 11 12 12 13 12 12 12 11 10 9 9 9 10 10 9 9
21 19 18 16 15 14 15 14 12 11 9 7 7 6 6 6 5 5 4 4 5 5 5 5 6 7 7 8 8 9 10 10 11 12 12 12 13 14 13 13 12 11 10 10 10 10 10 10 10
23 21 19 17 16 15 15 15 13 12 10 9 8 7 7 7 7 6 5 5 5 6 6 6 6 7 8 9 9 10 11 11 12 12 12 12 13 14 14 14 12 11 11 11 11 10 10 10 10
24 22 21 20 18 16 16 15 14 13 12 11 11 10 9 8 8 7 7 7 7 7 8 8 8 8 9 10 10 10 10 11 12 12 13 13 13 14 13 13 13 12 11 11 10 10 11 11 10
26 25 23 21 19 16 15 15 15 14 13 13 12 11 10 9 9 8 9 9 9 9 9 10 10 10 10 10 11 11 12 12 13 12 13 13 14 14 14 14 13 13 12 11 11 11 11 10 10
26 26 24 22 21 19 16 16 17 15 13 12 12 12 11 10 10 9 9 9 10 10 10 11 11 11 11 11 12 12 13 13 13 13 14 14 14 14 14 14 14 13 13 12 11 11 11 11 11
Wind_Direction
77 76 75 78 79 83 85 88 89 88 88 87 87 87 87 86 85 85 84 84 80 80 79 78 78 80 82 84 87 89 92 93 94 94 93 94 96 98 101 103 109 116 120 120 122 123 122 120 120
75 73 74 77 82 85 85 85 87 86 86 86 87 88 85 85 84 83 81 78 74 76 75 76 76 78 80 82 85 87 90 93 95 95 95 97 97 99 100 101 104 110 115 118 123 125 125 122 122
72 71 74 77 82 85 85 85 86 86 84 85 87 87 83 81 80 78 77 74 71 71 72 73 71 73 76 79 84 85 88 93 96 96 97 99 98 100 100 101 101 104 109 114 121 127 129 127 130
70 73 73 73 75 82 82 82 82 82 82 83 84 85 83 78 77 78 75 72 71 70 70 70 70 68 71 75 80 83 86 90 95 96 98 100 101 101 100 100 101 102 104 112 121 126 124 128 131
69 70 70 70 73 76 78 79 78 77 77 79 81 84 82 78 75 74 74 74 75 73 70 67 65 65 69 73 77 81 84 87 91 94 96 98 102 100 100 101 102 102 103 111 118 123 122 127 128
69 69 71 71 72 77 77 78 76 75 75 78 77 80 82 78 70 71 72 72 73 72 67 63 61 60 65 70 73 77 80 83 88 93 95 95 101 100 99 103 106 102 99 105 114 118 116 118 124
72 74 73 74 73 77 77 76 77 75 73 71 73 79 79 74 67 69 70 69 69 69 64 60 57 53 62 67 71 73 76 80 85 89 94 95 96 98 97 105 109 101 97 100 108 112 116 120 124
75 75 72 73 72 75 77 75 74 74 72 70 71 73 76 73 68 69 68 68 65 62 59 59 58 53 58 63 65 64 69 74 83 85 87 88 92 94 90 104 111 111 104 102 111 122 125 127 130
76 79 77 74 73 73 75 73 71 70 70 68 70 72 72 70 70 68 67 67 61 56 57 59 57 54 54 55 53 57 60 67 78 84 84 79 80 85 82 98 108 112 108 110 112 120 128 132 136
81 87 85 81 79 76 73 73 70 66 67 67 70 72 72 72 71 69 68 66 60 55 55 55 57 52 51 49 49 55 61 63 69 71 69 67 66 76 93 107 111 107 112 115 112 124 135 137 135
85 90 86 84 79 76 73 71 67 65 66 68 71 72 72 71 68 68 69 65 58 53 54 54 54 52 53 48 48 56 58 56 59 60 63 60 64 86 102 106 108 117 123 126 125 127 134 135 127
83 85 84 83 78 77 75 69 66 65 67 70 70 66 66 70 68 67 64 59 55 54 52 51 53 52 50 46 45 44 45 50 59 61 55 53 62 92 110 122 115 129 142 149 157 154 143 133 129
93 91 82 81 78 77 73 69 67 67 67 66 63 62 66 70 67 66 62 59 56 53 50 49 49 47 42 38 39 40 39 41 42 35 35 50 74 103 103 97 116 137 166 162 155 161 166 149 151
109 102 89 84 78 75 73 70 66 66 63 62 60 62 64 65 67 65 60 57 57 53 49 44 44 44 40 37 36 32 35 42 43 47 42 45 47 48 27 65 100 132 151 185 165 178 182 180 193
129 122 100 89 84 76 72 67 65 62 61 60 59 57 59 63 68 66 61 58 56 52 48 46 46 44 44 42 40 42 43 41 34 40 43 50 54 52 39 25 48 105 64 357 319 230 231 232 230
161 147 138 110 98 83 73 63 61 61 60 57 55 55 57 62 65 64 59 57 55 50 44 45 45 43 43 41 39 41 41 39 40 41 42 43 39 32 32 28 32 22 356 345 343 294 269 258 255
190 173 167 151 124 91 80 71 62 59 57 54 53 53 55 58 61 61 57 53 50 46 39 39 38 41 40 43 44 39 39 38 38 39 37 37 37 35 36 36 32 5 344 349 345 309 287 273 265
201 197 200 190 165 120 93 82 67 55 48 47 48 49 48 49 52 50 45 43 42 39 35 31 29 31 37 42 44 39 37 37 36 33 32 32 31 31 30 26 18 358 343 333 323 307 283 267 263
210 210 215 223 215 193 139 98 62 39 36 38 43 41 37 37 39 37 32 30 31 32 30 29 29 30 30 34 38 37 34 33 30 27 24 25 24 22 17 11 0 353 343 331 329 317 297 285 265
216 217 223 233 229 223 215 242 309 334 16 28 34 32 30 26 23 18 21 24 22 21 21 23 32 30 27 30 30 30 30 28 25 23 20 16 13 12 9 358 348 343 340 332 323 315 304 296 277
223 221 228 236 236 238 242 267 274 297 323 358 12 13 11 12 14 14 11 12 13 11 14 20 21 22 25 27 26 23 23 21 19 18 17 13 7 2 354 350 343 337 333 326 319 310 302 296 280
224 227 231 235 235 243 239 260 271 272 283 302 329 349 357 5 9 9 4 2 3 7 9 10 10 15 18 21 22 20 18 15 13 14 13 10 3 359 355 347 342 335 329 326 323 313 307 295 283
224 228 233 236 236 239 242 245 264 266 272 279 286 309 333 353 1 358 352 357 357 359 356 358 1 7 7 8 10 10 10 10 9 9 8 6 360 356 354 347 343 339 328 316 311 307 302 294 285
226 229 234 237 239 242 242 243 249 259 264 262 265 278 296 313 333 341 341 349 350 351 347 347 349 353 356 356 357 360 1 2 1 0 359 357 356 354 351 346 342 338 328 321 314 308 303 297 291
226 228 232 236 240 244 246 245 247 254 255 255 255 265 278 293 306 314 322 336 340 340 340 338 340 342 347 348 347 348 349 350 349 350 349 350 351 349 346 343 340 334 329 321 318 312 306 300 294
226 227 226 230 240 245 249 247 248 252 251 248 253 262 274 280 286 298 307 317 324 323 322 322 327 331 334 337 338 340 341 339 343 345 343 344 344 342 342 343 338 330 324 319 313 311 307 301 291
226 225 226 232 237 237 246 249 251 248 244 246 249 258 268 273 273 281 293 299 304 309 312 313 314 318 319 323 325 329 334 337 337 338 338 337 337 337 336 336 336 332 324 318 313 310 308 301 293
226 227 227 228 233 239 247 250 249 247 242 246 251 259 264 267 268 274 280 283 291 294 297 301 305 308 312 316 317 321 323 326 330 332 330 329 331 332 332 333 334 332 329 324 318 314 310 303 300
226 226 227 230 233 234 243 249 245 246 245 246 250 254 258 263 266 268 273 278 283 286 287 292 300 304 306 311 315 315 317 319 321 323 327 325 326 328 331 332 331 328 324 322 317 312 314 310 304
226 228 229 229 233 234 236 248 248 247 248 246 246 249 255 259 260 263 268 274 281 284 285 290 293 296 302 306 310 312 313 315 318 316 320 323 322 323 325 325 328 327 324 319 315 312 309 307 304
Height
5906 5905 5905 5905 5906 5905 5904 5903 5902 5900 5900 5899 5898 5898 5897 5897 5897 5898 5895 5893 5893 5892 5891 5891 5890 5889 5889 5888 5888 5887 5887 5887 5886 5886 5886 5885 5885 5885 5885 5885 5885 5885 5885 5885 5886 5886 5887 5887 5888
5908 5907 5908 5908 5908 5907 5906 5905 5903 5902 5902 5901 5900 5899 5899 5898 5898 5897 5895 5895 5894 5893 5893 5892 5892 5891 5890 5890 5889 5889 5888 5888 5888 5887 5887 5887 5886 5886 5886 5886 5886 5886 5886 5886 5887 5887 5888 5888 5888
5910 5910 5911 5911 5910 5909 5908 5906 5905 5904 5903 5902 5902 5901 5901 5900 5899 5898 5897 5896 5895 5895 5894 5894 5893 5892 5891 5891 5890 5890 5890 5889 5889 5889 5888 5888 5887 5887 5887 5887 5887 5887 5887 5887 5888 5888 5888 5889 5889
5912 5913 5914 5913 5911 5911 5910 5908 5907 5906 5905 5904 5903 5902 5902 5901 5900 5899 5898 5897 5897 5896 5896 5895 5894 5894 5893 5892 5892 5891 5891 5890 5890 5890 5889 5889 5889 5888 5888 5888 5888 5888 5888 5888 5888 5889 5889 5889 5890
5915 5915 5916 5915 5913 5913 5911 5910 5908 5907 5906 5905 5904 5904 5903 5903 5901 5900 5899 5899 5898 5898 5897 5897 5896 5895 5894 5894 5893 5892 5892 5891 5891 5891 5890 5890 5890 5889 5889 5889 5889 5888 5889 5889 5889 5889 5890 5890 5890
5917 5918 5918 5917 5916 5914 5913 5912 5910 5909 5908 5907 5906 5905 5904 5904 5903 5902 5901 5901 5900 5899 5899 5898 5897 5896 5896 5895 5894 5893 5893 5892 5892 5892 5891 5891 5891 5891 5890 5890 5889 5889 5889 5890 5890 5890 5890 5891 5891
5920 5920 5919 5918 5917 5916 5915 5913 5912 5911 5910 5909 5908 5907 5906 5905 5905 5904 5903 5902 5902 5901 5900 5899 5898 5897 5897 5896 5895 5894 5894 5893 5893 5893 5892 5892 5892 5892 5891 5891 5890 5890 5890 5890 5890 5891 5891 5891 5892
5920 5922 5920 5920 5919 5918 5916 5915 5914 5913 5912 5911 5910 5909 5908 5907 5906 5905 5904 5904 5903 5902 5901 5900 5899 5898 5897 5896 5896 5895 5895 5894 5894 5893 5893 5893 5892 5892 5892 5891 5891 5891 5891 5891 5891 5891 5891 5892 5892
5922 5924 5922 5921 5920 5919 5918 5917 5916 5914 5913 5912 5911 5910 5909 5908 5908 5907 5906 5905 5905 5904 5903 5902 5901 5900 5898 5897 5896 5896 5895 5895 5894 5894 5893 5893 5893 5892 5892 5892 5892 5892 5892 5892 5892 5892 5892 5892 5893
5924 5924 5923 5922 5921 5920 5919 5918 5917 5916 5914 5913 5912 5911 5910 5910 5909 5908 5908 5907 5906 5905 5904 5903 5902 5901 5899 5898 5897 5896 5896 5895 5895 5894 5894 5894 5893 5893 5892 5892 5892 5892 5892 5892 5893 5892 5893 5893 5893
5924 5924 5924 5923 5922 5921 5920 5919 5918 5917 5916 5915 5914 5913 5912 5911 5911 5910 5909 5909 5908 5907 5906 5904 5903 5902 5901 5899 5898 5897 5897 5896 5895 5895 5894 5894 5894 5893 5893 5893 5892 5892 5892 5893 5893 5893 5893 5893 5893
5925 5925 5924 5924 5923 5922 5921 5921 5920 5919 5918 5917 5915 5914 5913 5913 5912 5911 5911 5910 5909 5908 5907 5906 5904 5903 5902 5900 5899 5898 5897 5897 5896 5895 5895 5894 5894 5893 5893 5893 5893 5893 5893 5893 5893 5893 5893 5893 5893
5926 5926 5925 5925 5924 5924 5923 5922 5921 5920 5919 5918 5917 5916 5915 5914 5914 5913 5912 5911 5911 5910 5908 5907 5906 5904 5903 5901 5900 5899 5898 5897 5896 5896 5895 5895 5894 5893 5893 5893 5893 5892 5893 5893 5893 5893 5893 5893 5893
5926 5926 5926 5926 5925 5925 5924 5924 5923 5922 5921 5920 5919 5917 5917 5916 5915 5914 5914 5913 5912 5911 5910 5909 5907 5906 5904 5903 5901 5900 5898 5898 5897 5896 5895 5895 5894 5894 5893 5893 5893 5892 5892 5892 5893 5893 5893 5893 5893
5927 5927 5927 5927 5926 5926 5926 5925 5924 5923 5922 5921 5920 5919 5918 5917 5917 5916 5915 5914 5913 5912 5911 5910 5909 5907 5905 5904 5903 5901 5900 5899 5897 5897 5896 5894 5894 5893 5893 5893 5892 5892 5892 5892 5892 5892 5892 5892 5893
5927 5928 5928 5928 5927 5927 5928 5927 5926 5925 5924 5923 5922 5921 5920 5919 5918 5917 5916 5915 5914 5913 5912 5911 5910 5908 5907 5905 5904 5903 5901 5900 5898 5897 5896 5895 5894 5894 5893 5893 5892 5892 5892 5892 5892 5892 5892 5892 5892
5927 5929 5929 5929 5928 5928 5928 5928 5927 5926 5925 5924 5923 5922 5921 5920 5919 5918 5917 5916 5915 5915 5914 5912 5911 5909 5908 5907 5905 5904 5903 5902 5900 5898 5897 5896 5896 5895 5894 5894 5893 5892 5892 5892 5892 5891 5891 5891 5891
5928 5929 5929 5929 5929 5928 5928 5928 5928 5927 5926 5925 5924 5923 5922 5921 5921 5919 5918 5917 5917 5916 5915 5913 5912 5910 5909 5908 5907 5905 5904 5903 5901 5900 5899 5897 5896 5895 5895 5894 5894 5893 5892 5892 5891 5891 5890 5890 5890
5927 5928 5929 5929 5928 5928 5928 5928 5928 5927 5927 5926 5925 5924 5923 5923 5922 5921 5920 5918 5918 5917 5916 5914 5913 5912 5910 5909 5908 5907 5905 5904 5902 5901 5899 5898 5897 5896 5895 5894 5894 5893 5892 5891 5890 5890 5889 5889 5889
5925 5927 5928 5928 5928 5928 5928 5928 5928 5927 5927 5926 5926 5925 5924 5923 5923 5922 5920 5920 5918 5917 5916 5915 5914 5913 5911 5910 5909 5908 5906 5905 5903 5902 5900 5899 5898 5896 5895 5894 5893 5892 5891 5890 5890 5889 5889 5888 5888
5923 5925 5926 5926 5927 5927 5928 5928 5928 5928 5927 5926 5926 5925 5924 5924 5923 5922 5921 5920 5919 5918 5917 5916 5915 5914 5912 5911 5910 5909 5907 5906 5904 5902 5901 5899 5898 5896 5895 5894 5893 5891 5891 5890 5889 5888 5888 5888 5887
5921 5923 5924 5925 5926 5927 5928 5929 5928 5927 5927 5926 5925 5925 5925 5924 5923 5922 5922 5921 5919 5919 5917 5916 5915 5914 5913 5912 5911 5909 5908 5906 5905 5903 5901 5900 5898 5896 5895 5893 5892 5891 5890 5889 5888 5887 5887 5886 5886
5919 5920 5922 5923 5924 5926 5926 5927 5929 5926 5926 5926 5925 5925 5924 5924 5923 5922 5922 5921 5920 5919 5918 5917 5916 5915 5914 5912 5911 5910 5908 5907 5905 5903 5901 5900 5898 5896 5894 5892 5891 5889 5888 5888 5886 5886 5885 5885 5884
5914 5917 5919 5921 5923 5924 5925 5926 5927 5926 5925 5925 5924 5924 5924 5923 5923 5922 5921 5921 5920 5919 5918 5917 5916 5915 5914 5912 5911 5910 5908 5907 5905 5903 5901 5899 5898 5896 5894 5892 5890 5888 5887 5886 5885 5884 5884 5883 5882
5911 5915 5917 5919 5920 5922 5922 5922 5925 5923 5923 5923 5923 5923 5923 5922 5922 5921 5921 5920 5919 5919 5917 5917 5916 5915 5914 5912 5911 5910 5908 5907 5905 5903 5901 5899 5897 5895 5893 5891 5889 5887 5886 5885 5884 5883 5882 5881 5880
5907 5911 5915 5917 5919 5920 5918 5919 5922 5920 5921 5921 5921 5921 5921 5921 5921 5921 5920 5920 5919 5918 5917 5916 5915 5914 5913 5912 5911 5909 5908 5906 5904 5902 5900 5899 5897 5894 5892 5890 5888 5886 5884 5883 5882 5881 5880 5879 5878
5902 5905 5910 5913 5914 5916 5916 5916 5917 5917 5918 5918 5919 5919 5920 5920 5919 5919 5919 5919 5918 5917 5916 5915 5914 5913 5912 5911 5910 5909 5907 5905 5904 5902 5900 5898 5895 5893 5891 5889 5886 5884 5883 5881 5880 5879 5878 5877 5876
5898 5901 5905 5907 5910 5912 5913 5913 5915 5914 5915 5916 5916 5917 5917 5917 5918 5917 5917 5917 5917 5916 5915 5914 5913 5912 5911 5910 5909 5908 5906 5904 5903 5901 5899 5896 5894 5892 5890 5887 5885 5883 5881 5879 5878 5877 5876 5874 5873
5893 5896 5899 5903 5905 5908 5911 5913 5911 5911 5912 5913 5913 5914 5915 5915 5915 5915 5915 5915 5915 5914 5913 5912 5911 5910 5909 5908 5907 5906 5904 5903 5901 5899 5897 5895 5893 5891 5888 5886 5884 5881 5879 5878 5876 5875 5873 5872 5871
5888 5891 5895 5898 5900 5903 5906 5910 5906 5907 5908 5909 5910 5911 5912 5912 5913 5913 5913 5913 5912 5912 5911 5910 5909 5908 5907 5906 5905 5904 5902 5901 5899 5897 5895 5893 5891 5889 5886 5884 5882 5879 5877 5875 5874 5872 5871 5869 5868